EW6336 Weather Reports


Display with metric or nautical units.
time (UTC)temp
F
wind
direction
speed
MPH
gust
MPH
rain 1hr
in
rain 24hr
in
rain mn
in
humidity
%
barometer
mb
20260510222517 66 203 3.0 8.0 0.00 0.00 0.00 74 1013.4
20260510221516 66 203 4.0 9.0 0.00 0.00 0.00 73 1013.6
20260510220516 67 203 4.0 8.0 0.00 0.00 0.00 73 1013.6
20260510215517 67 203 4.0 10.0 0.00 0.00 0.00 74 1013.8
20260510214516 66 225 4.0 7.0 0.00 0.00 0.00 75 1013.7
20260510213536 66 203 3.0 7.0 0.00 0.00 0.00 78 1013.6
20260510212516 66 270 3.0 6.0 0.00 0.00 0.00 78 1013.6
20260510211517 67 248 4.0 10.0 0.00 0.00 0.00 77 1013.5
20260510210517 67 270 5.0 13.0 0.00 0.00 0.00 75 1013.4
20260510205516 67 225 3.0 8.0 0.00 0.00 0.00 73 1013.4
20260510204516 68 180 4.0 8.0 0.00 0.00 0.00 72 1013.2
20260510203516 68 225 2.0 6.0 0.00 0.00 0.00 70 1013.2
20260510202516 68 270 1.0 3.0 0.00 0.00 0.00 69 1013.0
20260510201516 69 203 2.0 7.0 0.00 0.00 0.00 65 1012.7
20260510200516 70 203 3.0 6.0 0.00 0.00 0.00 62 1012.6
20260510195516 70 225 3.0 8.0 0.00 0.00 0.00 58 1012.6
20260510194516 71 225 5.0 12.0 0.00 0.00 0.00 55 1012.5
20260510193516 71 248 5.0 14.0 0.00 0.00 0.00 55 1012.4
20260510192536 72 225 4.0 9.0 0.00 0.00 0.00 52 1012.1
20260510191516 72 203 4.0 9.0 0.00 0.00 0.00 51 1012.1
20260510190516 72 225 6.0 13.0 0.00 0.00 0.00 51 1012.0
20260510185516 73 225 6.0 11.0 0.00 0.00 0.00 51 1012.0
20260510184516 73 203 5.0 11.0 0.00 0.00 0.00 49 1011.9
20260510183516 73 203 5.0 10.0 0.00 0.00 0.00 53 1011.7
20260510182516 73 225 4.0 12.0 0.00 0.00 0.00 54 1011.7
20260510181516 73 203 5.0 11.0 0.00 0.00 0.00 54 1011.8
20260510180536 73 203 6.0 12.0 0.00 0.00 0.00 55 1011.6
20260510175516 73 248 6.0 17.0 0.00 0.00 0.00 54 1011.6
20260510174516 73 203 7.0 13.0 0.00 0.00 0.00 54 1011.7
20260510173536 73 225 7.0 13.0 0.00 0.00 0.00 54 1011.6
20260510172536 74 203 6.0 12.0 0.00 0.00 0.00 53 1011.6
20260510171516 74 225 7.0 16.0 0.00 0.00 0.00 52 1011.6
20260510170516 74 225 7.0 15.0 0.00 0.00 0.00 51 1011.8
20260510165516 75 203 7.0 13.0 0.00 0.00 0.00 49 1011.7
20260510164516 74 225 7.0 20.0 0.00 0.00 0.00 49 1011.8
20260510163516 74 203 8.0 24.0 0.00 0.00 0.00 49 1011.6
20260510162516 75 225 10.0 18.0 0.00 0.00 0.00 47 1011.6
20260510161516 75 270 8.0 17.0 0.00 0.00 0.00 45 1011.6
20260510160516 75 203 9.0 19.0 0.00 0.00 0.00 44 1011.6
20260510155516 75 248 9.0 21.0 0.00 0.00 0.00 42 1011.7
20260510154516 76 270 10.0 17.0 0.00 0.00 0.00 42 1011.8
20260510153515 75 203 9.0 18.0 0.00 0.00 0.00 42 1011.8
20260510152516 75 270 7.0 15.0 0.00 0.00 0.00 43 1011.8
20260510151516 75 248 8.0 17.0 0.00 0.00 0.00 44 1012.1
20260510150515 74 225 10.0 22.0 0.00 0.00 0.00 44 1012.2
20260510145535 74 225 8.0 20.0 0.00 0.00 0.00 46 1012.4
20260510144516 74 203 9.0 17.0 0.00 0.00 0.00 48 1012.5
20260510143516 74 203 6.0 12.0 0.00 0.00 0.00 49 1012.8
20260510142515 74 225 7.0 20.0 0.00 0.00 0.00 50 1012.9
20260510141516 73 225 7.0 16.0 0.00 0.00 0.00 54 1013.2
20260510140602 75 225 6.0 13.0 0.00 0.00 0.00 48 1013.2
20260510135515 75 225 8.0 18.0 0.00 0.00 0.00 46 1013.3
20260510134519 75 203 6.0 15.0 0.00 0.00 0.00 49 1013.5
20260510133555 75 203 6.0 11.0 0.00 0.00 0.00 50 1013.4
20260510132515 75 270 6.0 12.0 0.00 0.00 0.00 50 1013.5
20260510131515 75 203 6.0 13.0 0.00 0.00 0.00 51 1013.6
20260510130515 75 203 6.0 17.0 0.00 0.00 0.00 50 1013.6
20260510125515 74 203 6.0 15.0 0.00 0.00 0.00 52 1013.7
20260510124515 74 203 6.0 13.0 0.00 0.00 0.00 54 1013.6
20260510123515 74 203 8.0 16.0 0.00 0.00 0.00 50 1013.8
20260510122516 75 225 5.0 10.0 0.00 0.00 0.00 48 1014.1
20260510121555 75 225 5.0 11.0 0.00 0.00 0.00 46 1014.0
20260510120515 75 270 4.0 12.0 0.00 0.00 0.00 48 1014.0
20260510115517 75 225 6.0 12.0 0.00 0.00 0.00 47 1014.2
20260510114517 75 248 6.0 15.0 0.00 0.00 0.00 47 1014.3
20260510113557 75 203 6.0 15.0 0.00 0.00 0.00 45 1014.5
20260510112517 75 225 6.0 14.0 0.00 0.00 0.00 47 1014.5
20260510111517 75 270 6.0 12.0 0.00 0.00 0.00 47 1014.6
20260510110535 75 225 5.0 13.0 0.00 0.00 0.00 48 1014.7
20260510105517 75 203 5.0 14.0 0.00 0.00 0.00 49 1014.7
20260510104517 75 203 6.0 11.0 0.00 0.00 0.00 49 1014.7
20260510103537 75 225 6.0 12.0 0.00 0.00 0.00 48 1014.8
20260510102517 74 225 7.0 16.0 0.00 0.00 0.00 48 1014.8
20260510101537 75 225 6.0 13.0 0.00 0.00 0.00 49 1014.8
20260510100537 74 203 5.0 12.0 0.00 0.00 0.00 50 1014.8
20260510095517 73 248 4.0 8.0 0.00 0.00 0.00 54 1014.9
20260510094517 73 248 3.0 8.0 0.00 0.00 0.00 54 1014.9
20260510093517 72 225 4.0 9.0 0.00 0.00 0.00 54 1014.9
20260510092517 72 203 3.0 8.0 0.00 0.00 0.00 56 1014.7
20260510091517 72 225 3.0 7.0 0.00 0.00 0.00 58 1014.5
20260510090517 71 180 3.0 7.0 0.00 0.00 0.00 59 1014.7
20260510085537 71 248 2.0 6.0 0.00 0.02 0.00 60 1014.6
20260510084537 70 248 2.0 4.0 0.00 0.02 0.00 62 1014.5
20260510083537 69 180 2.0 6.0 0.00 0.02 0.00 63 1014.6
20260510082517 69 180 2.0 5.0 0.00 0.04 0.00 67 1014.8
20260510081517 68 135 1.0 2.0 0.00 0.06 0.00 72 1014.7
20260510080537 67 135 2.0 4.0 0.00 0.11 0.00 74 1014.7
20260510075537 67 338 1.0 2.0 0.00 0.13 0.00 78 1014.8
20260510074517 66 0.0 2.0 0.00 0.13 0.00 78 1014.7
20260510073517 65 0.0 2.0 0.00 0.14 0.00 80 1014.8
20260510072517 65 338 1.0 3.0 0.00 0.16 0.00 81 1014.7
20260510071517 65 338 1.0 2.0 0.00 0.17 0.00 82 1014.7
20260510070516 64 0.0 2.0 0.00 0.17 0.00 82 1014.7
20260510065516 64 0.0 2.0 0.00 0.17 0.00 82 1014.7
20260510064517 64 338 3.0 4.0 0.00 0.17 0.00 83 1014.6
20260510063536 63 315 1.0 3.0 0.00 0.17 0.00 83 1014.5
20260510062516 63 45 1.0 2.0 0.00 0.17 0.00 84 1014.4
20260510061517 63 0.0 2.0 0.00 0.17 0.00 84 1014.4
20260510060517 63 68 1.0 4.0 0.00 0.17 0.00 84 1014.3
20260510055516 62 0.0 1.0 0.00 0.17 0.00 84 1014.2
20260510054516 62 68 1.0 2.0 0.00 0.17 0.00 84 1014.0
20260510053517 62 0.0 2.0 0.00 0.17 0.00 84 1013.9
20260510052517 62 270 2.0 4.0 0.00 0.17 0.00 84 1013.8
20260510051516 62 45 1.0 2.0 0.00 0.17 0.00 83 1013.8
20260510050516 62 45 1.0 3.0 0.00 0.17 0.00 83 1013.9
20260510045516 62 45 1.0 3.0 0.00 0.17 0.00 82 1013.8
20260510044516 62 45 2.0 4.0 0.00 0.17 0.00 82 1013.6
20260510043516 63 45 2.0 3.0 0.00 0.17 0.00 81 1013.7
20260510042537 63 45 3.0 5.0 0.00 0.17 0.00 81 1013.8
20260510041516 63 0.0 1.0 0.00 0.17 0.00 81 1013.7
20260510040516 63 270 1.0 3.0 0.00 0.17 0.00 81 1013.7
20260510035516 63 270 2.0 4.0 0.00 0.17 0.00 81 1013.8
20260510034516 63 225 2.0 6.0 0.00 0.17 0.00 81 1013.7
20260510033516 64 270 3.0 7.0 0.00 0.17 0.00 81 1013.6
20260510032536 64 225 4.0 8.0 0.00 0.17 0.00 82 1013.6
20260510031516 64 225 3.0 7.0 0.00 0.17 0.00 82 1013.6
20260510030536 64 203 4.0 9.0 0.00 0.17 0.00 81 1013.7
20260510025516 64 225 5.0 10.0 0.00 0.17 0.00 81 1013.6
20260510024516 64 203 5.0 12.0 0.00 0.17 0.00 81 1013.6
20260510023516 64 225 6.0 17.0 0.00 0.17 0.00 81 1013.6
20260510022516 64 225 5.0 11.0 0.00 0.17 0.00 81 1013.4
20260510021516 64 225 4.0 11.0 0.00 0.17 0.00 81 1013.4
20260510020536 64 248 4.0 10.0 0.00 0.17 0.00 81 1013.4
20260510015516 64 248 5.0 12.0 0.00 0.17 0.00 81 1013.4
20260510014516 64 225 4.0 8.0 0.00 0.17 0.00 81 1013.5
20260510013516 64 203 3.0 8.0 0.00 0.17 0.00 81 1013.4
20260510012536 64 225 5.0 10.0 0.00 0.17 0.00 80 1013.5
20260510011516 64 225 4.0 9.0 0.00 0.17 0.00 80 1013.6
20260510010516 64 225 6.0 12.0 0.00 0.17 0.00 80 1013.6
20260510005516 64 225 6.0 12.0 0.00 0.17 0.00 80 1013.7
20260510004516 64 225 6.0 12.0 0.00 0.17 0.00 80 1013.7
20260510003516 64 203 5.0 10.0 0.00 0.17 0.00 80 1013.8
20260510002516 65 203 5.0 11.0 0.00 0.17 0.00 79 1014.0
20260510001516 65 225 6.0 11.0 0.00 0.17 0.00 79 1013.9
20260510000516 65 225 5.0 10.0 0.00 0.17 0.00 78 1013.9
20260509235537 65 225 4.0 11.0 0.00 0.17 0.17 78 1014.0
20260509234517 64 225 1.0 3.0 0.00 0.17 0.17 78 1014.1
20260509233517 64 293 2.0 5.0 0.00 0.17 0.17 78 1014.1
20260509232517 64 248 2.0 4.0 0.00 0.17 0.17 78 1014.2
20260509231517 64 0.0 2.0 0.00 0.17 0.17 78 1014.3
20260509230517 64 338 1.0 3.0 0.00 0.17 0.17 78 1014.3
20260509225517 65 248 1.0 3.0 0.00 0.17 0.17 78 1014.3
20260509224517 65 248 1.0 3.0 0.00 0.17 0.17 78 1014.3
20260509223517 65 248 1.0 2.0 0.00 0.17 0.17 78 1014.2
20260509222557 65 248 1.0 2.0 0.00 0.17 0.17 78 1014.2